contact:dominique.lefevre@mio.osupytheas.fr, maurice.libes@osupytheas.fr, didier.mallarino@osupytheas.fr
Project:EMSO http://www.emso-fr.org/EMSO-France
Depth: 2436.0 m
Title:EMSO Ligure Ouest : Data MII capteur AQUADOPP
Date,Latitude,Longitude,X_East,Y_North,Z_Up,Amplitude_X,Amplitude_Y,Amplitude_Z,Batterie,SoundSpeed,Heading,Pitch,Roll,Pressure,TIS,Speed,Direction
, degrees North, degrees East, m.s-1, m.s-1,m.s-1, 1, 1, 1, Volt, m.s-1, degree, degree, degree, dbar, degree_C, m.s-1, degree
2023-04-22T00:04:03,42.805,6.029,-0.008,-0.003,-0.042,101.0,101.0,101.0,13.3,1505.2,334.8,-0.8,1.8,2471.36,13.29,0.008,249.4
2023-04-22T00:07:03,42.805,6.029,-0.001,0.014,-0.011,101.0,100.0,101.0,13.4,1505.2,322.7,-0.8,1.8,2471.318,13.29,0.014,355.9
2023-04-22T00:10:03,42.805,6.029,-0.007,-0.012,-0.035,100.0,100.0,101.0,13.4,1505.2,324.8,-0.8,1.8,2471.328,13.29,0.013,210.3
2023-04-22T00:13:03,42.805,6.029,-0.036,0.01,-0.027,101.0,101.0,100.0,13.4,1505.2,322.3,-0.8,1.8,2471.316,13.29,0.037,285.5
2023-04-22T00:16:03,42.805,6.029,-0.004,0.01,-0.021,100.0,100.0,100.0,13.4,1505.2,328.8,-0.8,1.8,2471.302,13.29,0.01,338.2
2023-04-22T00:19:03,42.805,6.029,-0.029,-0.001,-0.026,101.0,101.0,101.0,13.4,1505.2,344.0,-0.8,1.8,2471.317,13.29,0.029,268.0
2023-04-22T00:22:03,42.805,6.029,-0.017,0.011,-0.018,101.0,101.0,100.0,13.4,1505.2,317.0,-0.8,1.8,2471.321,13.29,0.02,302.9
2023-04-22T00:25:03,42.805,6.029,-0.021,0.022,0.0,101.0,101.0,100.0,13.4,1505.2,330.3,-0.7,1.8,2471.331,13.29,0.03,316.3
2023-04-22T00:28:03,42.805,6.029,-0.019,-0.003,-0.012,101.0,101.0,100.0,13.4,1505.2,328.8,-0.7,1.8,2471.283,13.29,0.019,261.0
2023-04-22T00:31:03,42.805,6.029,-0.034,0.005,-0.051,101.0,102.0,101.0,13.3,1505.2,330.3,-0.8,1.8,2471.306,13.29,0.034,278.4
2023-04-22T00:34:03,42.805,6.029,-0.023,0.002,-0.031,102.0,102.0,101.0,13.4,1505.2,340.1,-0.8,1.8,2471.274,13.29,0.023,275.0
2023-04-22T00:37:03,42.805,6.029,0.0,-0.011,-0.047,101.0,101.0,101.0,13.4,1505.2,333.4,-0.8,1.8,2471.24,13.29,0.011,180.0
2023-04-22T00:40:03,42.805,6.029,-0.013,-0.004,-0.033,103.0,101.0,102.0,13.4,1505.2,332.4,-0.8,1.8,2471.284,13.29,0.013,252.9
2023-04-22T00:43:03,42.805,6.029,-0.052,0.039,-0.015,102.0,101.0,101.0,13.3,1505.2,331.0,-0.8,1.8,2471.261,13.29,0.064,306.9
2023-04-22T00:46:03,42.805,6.029,-0.029,0.021,0.003,102.0,102.0,101.0,13.4,1505.2,321.0,-0.8,1.8,2471.257,13.29,0.035,305.9
2023-04-22T00:49:03,42.805,6.029,-0.022,0.006,-0.03,101.0,101.0,101.0,13.4,1505.2,325.4,-0.8,1.8,2471.257,13.29,0.022,285.3
2023-04-22T00:52:03,42.805,6.029,-0.018,-0.003,-0.046,102.0,101.0,101.0,13.4,1505.2,338.2,-0.8,1.8,2471.257,13.29,0.018,260.5
2023-04-22T00:55:03,42.805,6.029,-0.015,-0.015,-0.013,102.0,102.0,100.0,13.4,1505.2,333.4,-0.8,1.8,2471.281,13.29,0.021,225.0
2023-04-22T00:58:03,42.805,6.029,-0.016,-0.001,-0.029,102.0,100.0,101.0,13.4,1505.2,336.9,-0.8,1.8,2471.268,13.29,0.016,266.4
2023-04-22T01:04:03,42.805,6.029,-0.007,-0.012,-0.025,104.0,104.0,102.0,13.4,1505.2,341.9,-0.7,1.8,2471.335,13.28,0.013,210.3
2023-04-22T01:07:03,42.805,6.029,-0.024,0.019,-0.045,103.0,103.0,101.0,13.4,1505.2,335.7,-0.8,1.8,2471.308,13.29,0.03,308.4
2023-04-22T01:10:03,42.805,6.029,-0.003,0.007,-0.009,103.0,102.0,100.0,13.4,1505.2,318.2,-0.8,1.8,2471.267,13.29,0.007,336.8
2023-04-22T01:13:03,42.805,6.029,-0.029,-0.003,-0.035,102.0,102.0,101.0,13.4,1505.2,328.8,-0.7,1.8,2471.334,13.29,0.029,264.1
2023-04-22T01:16:03,42.805,6.029,-0.025,-0.008,-0.03,104.0,102.0,100.0,13.4,1505.2,331.3,-0.8,1.8,2471.3,13.29,0.026,252.3
2023-04-22T01:19:03,42.805,6.029,-0.024,0.029,-0.018,101.0,102.0,102.0,13.4,1505.2,331.1,-0.8,1.8,2471.276,13.29,0.037,320.4
2023-04-22T01:22:03,42.805,6.029,-0.005,-0.002,-0.023,101.0,101.0,100.0,13.4,1505.2,329.0,-0.7,1.8,2471.257,13.29,0.005,248.2
2023-04-22T01:25:03,42.805,6.029,-0.001,-0.015,-0.023,101.0,100.0,101.0,13.4,1505.2,324.1,-0.8,1.8,2471.236,13.29,0.015,183.8
2023-04-22T01:28:03,42.805,6.029,-0.027,0.012,-0.025,101.0,102.0,100.0,13.4,1505.2,319.2,-0.8,1.9,2471.253,13.29,0.029,294.0
2023-04-22T01:31:03,42.805,6.029,-0.021,-0.002,-0.049,102.0,100.0,100.0,13.4,1505.2,317.9,-0.8,1.8,2471.247,13.29,0.021,264.6
2023-04-22T01:34:03,42.805,6.029,-0.046,-0.014,-0.067,103.0,101.0,101.0,13.4,1505.2,330.8,-0.8,1.8,2471.29,13.29,0.048,253.1
2023-04-22T01:37:03,42.805,6.029,-0.029,0.011,-0.017,101.0,102.0,101.0,13.3,1505.2,328.7,-0.8,1.8,2471.243,13.29,0.031,290.8
2023-04-22T01:40:03,42.805,6.029,-0.017,0.008,-0.02,101.0,101.0,101.0,13.3,1505.2,341.9,-0.8,1.8,2471.258,13.29,0.018,295.2
2023-04-22T01:43:03,42.805,6.029,-0.023,-0.013,-0.014,101.0,100.0,100.0,13.4,1505.2,325.3,-0.8,1.8,2471.206,13.29,0.026,240.5
2023-04-22T01:46:03,42.805,6.029,-0.005,0.015,-0.014,103.0,100.0,101.0,13.4,1505.2,326.0,-0.8,1.8,2471.234,13.29,0.015,341.6
2023-04-22T01:49:03,42.805,6.029,-0.026,0.038,0.006,101.0,101.0,101.0,13.4,1505.2,339.3,-0.8,1.8,2471.232,13.29,0.046,325.6
2023-04-22T01:52:03,42.805,6.029,-0.031,0.017,-0.022,101.0,102.0,101.0,13.4,1505.2,334.6,-0.8,1.8,2471.247,13.29,0.035,298.7
2023-04-22T01:55:03,42.805,6.029,-0.026,0.013,-0.035,103.0,102.0,105.0,13.4,1505.2,320.8,-0.8,1.8,2471.215,13.29,0.029,296.6
2023-04-22T01:58:03,42.805,6.029,-0.015,-0.003,-0.066,101.0,103.0,101.0,13.4,1505.2,326.6,-0.8,1.8,2471.224,13.29,0.015,258.7
2023-04-22T02:04:03,42.805,6.029,-0.017,-0.001,-0.062,103.0,101.0,100.0,13.4,1505.2,329.5,-0.8,1.8,2471.29,13.28,0.017,266.6
2023-04-22T02:07:03,42.805,6.029,-0.017,0.0,-0.02,102.0,101.0,100.0,13.4,1505.2,344.0,-0.8,1.8,2471.285,13.29,0.017,270.0
2023-04-22T02:10:03,42.805,6.029,-0.033,-0.01,-0.038,100.0,102.0,101.0,13.4,1505.2,316.1,-0.8,1.8,2471.277,13.29,0.034,253.1
2023-04-22T02:13:03,42.805,6.029,-0.008,0.009,-0.035,102.0,101.0,100.0,13.4,1505.2,318.2,-0.8,1.8,2471.277,13.29,0.012,318.4
2023-04-22T02:16:03,42.805,6.029,-0.008,-0.005,-0.009,102.0,101.0,101.0,13.4,1505.2,320.9,-0.7,1.8,2471.25,13.29,0.009,238.0
2023-04-22T02:19:03,42.805,6.029,-0.026,0.011,-0.043,101.0,102.0,101.0,13.4,1505.2,324.5,-0.7,1.8,2471.238,13.29,0.028,292.9
2023-04-22T02:22:03,42.805,6.029,-0.016,0.003,-0.038,101.0,102.0,101.0,13.4,1505.2,325.2,-0.8,1.8,2471.251,13.29,0.016,280.6
2023-04-22T02:25:03,42.805,6.029,-0.012,-0.017,-0.028,101.0,101.0,101.0,13.3,1505.2,326.3,-0.8,1.8,2471.25,13.29,0.02,215.2
2023-04-22T02:28:03,42.805,6.029,-0.01,0.01,-0.027,101.0,101.0,102.0,13.4,1505.2,328.4,-0.7,1.8,2471.254,13.29,0.014,315.0
2023-04-22T02:31:03,42.805,6.029,-0.023,-0.005,-0.046,101.0,101.0,101.0,13.4,1505.2,326.3,-0.7,1.8,2471.217,13.29,0.023,257.7
2023-04-22T02:34:03,42.805,6.029,-0.056,0.021,-0.05,102.0,102.0,101.0,13.4,1505.2,323.9,-0.7,1.8,2471.214,13.29,0.059,290.6
2023-04-22T02:37:03,42.805,6.029,-0.007,0.01,-0.013,99.0,103.0,101.0,13.4,1505.2,340.9,-0.8,1.8,2471.255,13.29,0.012,325.0
2023-04-22T02:40:03,42.805,6.029,-0.01,0.006,-0.035,101.0,101.0,101.0,13.4,1505.2,343.6,-0.8,1.8,2471.239,13.29,0.011,301.0
2023-04-22T02:43:03,42.805,6.029,-0.012,0.012,-0.014,100.0,103.0,100.0,13.3,1505.2,324.3,-0.8,1.8,2471.241,13.29,0.016,315.0
2023-04-22T02:46:03,42.805,6.029,-0.024,0.0,-0.031,101.0,101.0,100.0,13.3,1505.2,335.3,-0.7,1.8,2471.219,13.29,0.024,270.0
2023-04-22T02:49:03,42.805,6.029,-0.014,-0.015,-0.069,101.0,101.0,100.0,13.3,1505.2,341.5,-0.8,1.8,2471.232,13.29,0.02,223.0
2023-04-22T02:52:03,42.805,6.029,-0.005,0.009,-0.027,103.0,100.0,101.0,13.3,1505.2,334.3,-0.8,1.8,2471.204,13.29,0.01,330.9
2023-04-22T02:55:03,42.805,6.029,-0.002,0.009,-0.014,104.0,101.0,99.0,13.3,1505.2,339.1,-0.8,1.8,2471.227,13.29,0.009,347.5
2023-04-22T02:58:03,42.805,6.029,-0.008,0.0,-0.007,103.0,101.0,102.0,13.4,1505.2,317.4,-0.8,1.8,2471.2,13.29,0.008,270.0
2023-04-22T03:04:03,42.805,6.029,-0.016,0.007,-0.006,102.0,103.0,100.0,13.4,1505.2,329.7,-0.8,1.8,2471.285,13.29,0.017,293.6
2023-04-22T03:07:03,42.805,6.029,-0.008,0.011,-0.01,103.0,100.0,101.0,13.4,1505.2,325.4,-0.8,1.8,2471.32,13.29,0.013,324.0
2023-04-22T03:10:03,42.805,6.029,0.001,0.011,-0.021,101.0,101.0,102.0,13.4,1505.2,337.7,-0.7,1.8,2471.254,13.29,0.011,5.2
2023-04-22T03:13:03,42.805,6.029,-0.022,0.016,-0.013,101.0,103.0,101.0,13.4,1505.2,339.6,-0.8,1.8,2471.277,13.29,0.027,306.0
2023-04-22T03:16:03,42.805,6.029,-0.022,0.013,-0.02,100.0,102.0,101.0,13.3,1505.2,329.8,-0.7,1.8,2471.27,13.29,0.025,300.6
2023-04-22T03:19:03,42.805,6.029,-0.013,0.017,0.015,102.0,102.0,100.0,13.3,1505.2,333.4,-0.8,1.8,2471.232,13.29,0.021,322.6
2023-04-22T03:22:03,42.805,6.029,-0.017,0.017,-0.023,102.0,102.0,101.0,13.4,1505.2,330.5,-0.8,1.8,2471.237,13.29,0.024,315.0
2023-04-22T03:25:03,42.805,6.029,-0.036,0.018,-0.032,102.0,100.0,101.0,13.4,1505.2,324.5,-0.8,1.8,2471.195,13.29,0.04,296.6
2023-04-22T03:28:03,42.805,6.029,-0.012,0.001,-0.02,103.0,102.0,99.0,13.3,1505.2,341.9,-0.7,1.8,2471.221,13.29,0.012,274.8
2023-04-22T03:31:03,42.805,6.029,-0.032,-0.011,-0.027,101.0,101.0,100.0,13.4,1505.2,341.9,-0.8,1.8,2471.234,13.29,0.033,251.0
2023-04-22T03:34:03,42.805,6.029,-0.024,0.015,-0.042,103.0,102.0,100.0,13.4,1505.2,331.3,-0.8,1.8,2471.264,13.29,0.028,302.0
2023-04-22T03:37:03,42.805,6.029,-0.027,0.004,-0.023,101.0,101.0,101.0,13.4,1505.2,320.4,-0.8,1.8,2471.191,13.29,0.027,278.4
2023-04-22T03:40:03,42.805,6.029,-0.017,0.015,0.006,100.0,102.0,101.0,13.4,1505.2,332.5,-0.7,1.9,2471.222,13.29,0.022,311.4
2023-04-22T03:43:03,42.805,6.029,-0.044,0.017,0.001,101.0,102.0,101.0,13.4,1505.2,326.3,-0.7,1.8,2471.239,13.29,0.047,291.1
2023-04-22T03:46:03,42.805,6.029,0.007,0.002,-0.031,102.0,102.0,101.0,13.4,1505.2,326.3,-0.8,1.8,2471.19,13.29,0.007,74.1
2023-04-22T03:49:03,42.805,6.029,-0.001,-0.032,-0.036,101.0,102.0,102.0,13.4,1505.2,322.3,-0.8,1.8,2471.247,13.29,0.032,181.8
2023-04-22T03:52:03,42.805,6.029,-0.023,-0.004,-0.038,103.0,102.0,100.0,13.4,1505.2,327.1,-0.8,1.8,2471.236,13.29,0.023,260.1
2023-04-22T03:55:03,42.805,6.029,-0.023,-0.008,-0.019,102.0,102.0,101.0,13.4,1505.2,334.4,-0.8,1.8,2471.226,13.29,0.024,250.8
2023-04-22T03:58:03,42.805,6.029,-0.021,-0.013,-0.027,103.0,103.0,100.0,13.4,1505.2,340.1,-0.8,1.8,2471.241,13.29,0.024,238.2
2023-04-22T04:04:03,42.805,6.029,-0.007,0.002,-0.009,103.0,103.0,101.0,13.4,1505.2,324.1,-0.8,1.8,2471.243,13.29,0.007,285.9
2023-04-22T04:07:03,42.805,6.029,-0.002,-0.009,-0.034,103.0,102.0,101.0,13.3,1505.2,325.6,-0.8,1.8,2471.256,13.29,0.009,192.5
2023-04-22T04:10:03,42.805,6.029,0.004,-0.008,-0.031,101.0,103.0,101.0,13.4,1505.2,330.3,-0.8,1.8,2471.263,13.29,0.008,153.4
2023-04-22T04:13:03,42.805,6.029,-0.025,-0.002,-0.03,104.0,103.0,101.0,13.3,1505.2,334.4,-0.8,1.9,2471.288,13.29,0.025,265.4
2023-04-22T04:16:03,42.805,6.029,-0.006,-0.007,-0.047,102.0,102.0,101.0,13.3,1505.2,324.2,-0.8,1.8,2471.297,13.29,0.009,220.6
2023-04-22T04:19:03,42.805,6.029,-0.022,-0.003,-0.042,103.0,103.0,100.0,13.3,1505.2,327.8,-0.8,1.8,2471.256,13.29,0.022,262.2
2023-04-22T04:22:03,42.805,6.029,-0.011,0.004,-0.003,102.0,102.0,100.0,13.4,1505.2,329.9,-0.8,1.8,2471.258,13.29,0.011,290.0
2023-04-22T04:25:03,42.805,6.029,-0.01,-0.009,-0.012,102.0,101.0,101.0,13.3,1505.2,324.9,-0.8,1.8,2471.244,13.29,0.013,228.0
2023-04-22T04:28:03,42.805,6.029,-0.021,0.009,-0.003,102.0,101.0,101.0,13.4,1505.2,340.4,-0.8,1.8,2471.274,13.29,0.022,293.2
2023-04-22T04:31:03,42.805,6.029,-0.01,0.005,-0.009,103.0,103.0,99.0,13.3,1505.2,331.1,-0.8,1.8,2471.218,13.29,0.011,296.6
2023-04-22T04:34:03,42.805,6.029,-0.034,0.006,-0.001,102.0,101.0,101.0,13.4,1505.2,334.4,-0.8,1.8,2471.3,13.29,0.034,280.0
2023-04-22T04:37:03,42.805,6.029,-0.005,0.026,0.004,102.0,101.0,100.0,13.4,1505.2,327.8,-0.8,1.8,2471.286,13.29,0.026,349.1
2023-04-22T04:40:03,42.805,6.029,-0.041,0.002,-0.013,102.0,101.0,101.0,13.4,1505.2,325.0,-0.8,1.8,2471.291,13.29,0.041,272.8
2023-04-22T04:43:03,42.805,6.029,-0.01,0.021,-0.034,103.0,101.0,102.0,13.4,1505.2,316.8,-0.8,1.8,2471.289,13.29,0.023,334.5
2023-04-22T04:46:03,42.805,6.029,-0.021,0.017,-0.013,100.0,101.0,101.0,13.4,1505.2,329.0,-0.8,1.8,2471.219,13.29,0.027,309.0
2023-04-22T04:49:03,42.805,6.029,0.003,-0.012,-0.037,102.0,102.0,100.0,13.3,1505.2,328.4,-0.7,1.8,2471.216,13.29,0.012,166.0
2023-04-22T04:52:03,42.805,6.029,-0.026,0.015,-0.014,101.0,102.0,101.0,13.3,1505.2,340.1,-0.8,1.8,2471.281,13.29,0.03,300.0
2023-04-22T04:55:03,42.805,6.029,-0.022,0.013,-0.031,102.0,102.0,101.0,13.3,1505.2,329.9,-0.8,1.8,2471.228,13.29,0.025,300.6
2023-04-22T04:58:03,42.805,6.029,-0.016,0.001,-0.044,103.0,102.0,101.0,13.4,1505.2,315.6,-0.8,1.8,2471.272,13.29,0.016,273.6
2023-04-22T05:04:03,42.805,6.029,-0.018,0.007,-0.013,101.0,102.0,101.0,13.4,1505.2,327.1,-0.8,1.8,2471.3,13.29,0.019,291.2
2023-04-22T05:07:03,42.805,6.029,-0.01,0.024,0.009,101.0,102.0,101.0,13.3,1505.2,332.9,-0.7,1.7,2471.325,13.29,0.026,337.4
2023-04-22T05:10:03,42.805,6.029,-0.023,-0.001,-0.017,101.0,102.0,101.0,13.3,1505.2,326.0,-0.8,1.8,2471.306,13.29,0.023,267.5
2023-04-22T05:13:03,42.805,6.029,-0.012,0.015,0.01,103.0,102.0,100.0,13.4,1505.2,344.2,-0.7,1.8,2471.319,13.29,0.019,321.3
2023-04-22T05:16:03,42.805,6.029,-0.026,0.02,-0.024,101.0,101.0,101.0,13.3,1505.2,330.4,-0.7,1.8,2471.302,13.29,0.032,307.6
2023-04-22T05:19:03,42.805,6.029,-0.022,0.008,-0.025,100.0,102.0,102.0,13.4,1505.2,334.4,-0.8,1.8,2471.303,13.29,0.023,290.0
2023-04-22T05:22:03,42.805,6.029,-0.019,0.01,-0.03,101.0,101.0,101.0,13.4,1505.2,327.2,-0.8,1.8,2471.283,13.29,0.021,297.8
2023-04-22T05:25:03,42.805,6.029,-0.005,0.001,0.014,103.0,102.0,101.0,13.4,1505.2,330.3,-0.8,1.8,2471.286,13.29,0.005,281.3
2023-04-22T05:28:03,42.805,6.029,-0.009,0.012,-0.016,102.0,102.0,100.0,13.3,1505.2,329.3,-0.8,1.8,2471.298,13.29,0.015,323.1
2023-04-22T05:31:03,42.805,6.029,-0.025,0.001,-0.039,102.0,101.0,100.0,13.3,1505.2,331.6,-0.8,1.8,2471.316,13.29,0.025,272.3
2023-04-22T05:34:03,42.805,6.029,-0.009,0.013,0.0,101.0,101.0,101.0,13.4,1505.2,330.1,-0.8,1.8,2471.308,13.29,0.015,325.3
2023-04-22T05:37:03,42.805,6.029,-0.025,0.018,-0.015,103.0,103.0,100.0,13.4,1505.2,328.1,-0.7,1.8,2471.327,13.29,0.03,305.8
2023-04-22T05:40:03,42.805,6.029,-0.036,0.009,-0.016,101.0,101.0,101.0,13.4,1505.2,323.4,-0.8,1.8,2471.311,13.29,0.037,284.0
2023-04-22T05:43:03,42.805,6.029,0.003,0.011,0.003,102.0,103.0,99.0,13.4,1505.2,344.3,-0.8,1.8,2471.338,13.29,0.011,15.3
2023-04-22T05:46:03,42.805,6.029,-0.03,0.004,-0.011,101.0,101.0,101.0,13.4,1505.2,344.0,-0.7,1.8,2471.293,13.29,0.03,277.6
2023-04-22T05:49:03,42.805,6.029,-0.049,0.004,0.0,101.0,101.0,101.0,13.4,1505.2,315.5,-0.7,1.8,2471.33,13.29,0.049,274.7
2023-04-22T05:52:03,42.805,6.029,-0.007,0.008,-0.031,101.0,101.0,100.0,13.4,1505.2,334.4,-0.8,1.8,2471.281,13.29,0.01,318.8
2023-04-22T05:55:03,42.805,6.029,-0.041,0.008,-0.025,101.0,101.0,100.0,13.4,1505.2,327.5,-0.8,1.8,2471.358,13.29,0.041,281.0
2023-04-22T05:58:03,42.805,6.029,-0.006,0.013,-0.025,102.0,101.0,100.0,13.4,1505.2,340.4,-0.8,1.8,2471.34,13.29,0.014,335.2
2023-04-22T06:04:03,42.805,6.029,-0.015,0.013,-0.034,102.0,102.0,100.0,13.4,1505.2,326.0,-0.8,1.8,2471.4,13.29,0.019,310.9
2023-04-22T06:07:03,42.805,6.029,-0.014,0.006,-0.024,102.0,101.0,102.0,13.4,1505.2,343.6,-0.8,1.8,2471.354,13.29,0.015,293.2
2023-04-22T06:10:03,42.805,6.029,-0.026,0.024,-0.017,100.0,102.0,101.0,13.4,1505.2,342.5,-0.7,1.8,2471.375,13.29,0.035,312.7
2023-04-22T06:13:03,42.805,6.029,-0.009,0.001,0.005,102.0,101.0,101.0,13.4,1505.2,333.8,-0.8,1.8,2471.373,13.29,0.009,276.3
2023-04-22T06:16:03,42.805,6.029,-0.014,0.016,-0.016,102.0,101.0,101.0,13.4,1505.2,327.5,-0.7,1.8,2471.368,13.29,0.021,318.8
2023-04-22T06:19:02,42.805,6.029,-0.01,0.02,-0.005,101.0,104.0,100.0,13.4,1505.2,327.5,-0.8,1.8,2471.379,13.29,0.022,333.4
2023-04-22T06:22:03,42.805,6.029,-0.007,0.006,-0.02,103.0,101.0,101.0,13.4,1505.2,337.1,-0.7,1.8,2471.351,13.29,0.009,310.6
2023-04-22T06:25:02,42.805,6.029,-0.014,0.003,-0.034,102.0,101.0,102.0,13.4,1505.2,336.0,-0.7,1.8,2471.36,13.29,0.014,282.1
2023-04-22T06:28:02,42.805,6.029,-0.014,0.01,-0.026,101.0,101.0,100.0,13.4,1505.2,329.0,-0.8,1.8,2471.331,13.29,0.017,305.5
2023-04-22T06:31:02,42.805,6.029,-0.003,-0.006,-0.001,101.0,101.0,102.0,13.4,1505.2,318.0,-0.8,1.8,2471.334,13.29,0.006,206.6
2023-04-22T06:34:02,42.805,6.029,0.01,-0.021,-0.035,102.0,102.0,102.0,13.3,1505.2,339.3,-0.7,1.8,2471.343,13.29,0.023,154.5
2023-04-22T06:37:02,42.805,6.029,-0.01,0.0,-0.045,103.0,102.0,101.0,13.4,1505.2,323.7,-0.7,1.8,2471.399,13.29,0.01,270.0
2023-04-22T06:40:03,42.805,6.029,-0.002,-0.006,-0.033,102.0,101.0,101.0,13.4,1505.2,324.4,-0.7,1.8,2471.335,13.29,0.006,198.4
2023-04-22T06:43:03,42.805,6.029,-0.018,-0.007,-0.011,102.0,102.0,100.0,13.3,1505.2,335.5,-0.8,1.8,2471.385,13.29,0.019,248.8
2023-04-22T06:46:02,42.805,6.029,-0.023,-0.003,-0.019,102.0,101.0,102.0,13.4,1505.2,327.4,-0.8,1.8,2471.369,13.29,0.023,262.6
2023-04-22T06:49:02,42.805,6.029,-0.022,0.013,-0.024,100.0,102.0,99.0,13.4,1505.2,341.2,-0.7,1.8,2471.392,13.29,0.025,300.6
2023-04-22T06:52:02,42.805,6.029,0.01,-0.004,0.0,102.0,102.0,101.0,13.4,1505.2,321.6,-0.8,1.8,2471.409,13.29,0.01,111.8
2023-04-22T06:55:03,42.805,6.029,-0.049,0.01,-0.025,101.0,101.0,101.0,13.4,1505.2,324.2,-0.8,1.8,2471.379,13.29,0.05,281.5
2023-04-22T06:58:03,42.805,6.029,0.002,-0.004,-0.028,102.0,101.0,100.0,13.4,1505.2,337.6,-0.7,1.8,2471.367,13.29,0.004,153.4
2023-04-22T07:04:02,42.805,6.029,-0.011,0.008,-0.011,102.0,102.0,100.0,13.4,1505.2,333.4,-0.8,1.8,2471.423,13.29,0.013,306.0
2023-04-22T07:07:02,42.805,6.029,0.008,-0.006,-0.009,100.0,101.0,100.0,13.4,1505.2,329.9,-0.8,1.8,2471.448,13.29,0.01,126.9
2023-04-22T07:10:03,42.805,6.029,-0.01,-0.01,-0.038,101.0,101.0,100.0,13.3,1505.2,326.0,-0.8,1.8,2471.406,13.29,0.014,225.0
2023-04-22T07:13:03,42.805,6.029,0.0,0.002,-0.019,101.0,101.0,100.0,13.3,1505.2,333.4,-0.7,1.8,2471.421,13.29,0.002,0.0
2023-04-22T07:16:03,42.805,6.029,0.023,-0.003,-0.023,101.0,102.0,101.0,13.3,1505.2,324.4,-0.8,1.8,2471.416,13.29,0.023,97.4
2023-04-22T07:19:03,42.805,6.029,-0.01,0.009,-0.021,102.0,101.0,99.0,13.4,1505.2,337.1,-0.8,1.8,2471.406,13.29,0.013,312.0
2023-04-22T07:22:03,42.805,6.029,0.004,0.008,-0.006,102.0,101.0,100.0,13.4,1505.2,333.9,-0.8,1.8,2471.396,13.29,0.008,26.6
2023-04-22T07:25:03,42.805,6.029,-0.023,-0.01,-0.034,102.0,101.0,100.0,13.4,1505.2,344.0,-0.7,1.8,2471.416,13.29,0.025,246.5
2023-04-22T07:28:02,42.805,6.029,-0.004,-0.002,-0.017,101.0,102.0,101.0,13.4,1505.2,340.0,-0.7,1.8,2471.414,13.29,0.004,243.4
2023-04-22T07:31:03,42.805,6.029,-0.008,0.009,-0.012,101.0,101.0,101.0,13.4,1505.2,328.1,-0.8,1.8,2471.386,13.29,0.012,318.4
2023-04-22T07:34:03,42.805,6.029,-0.007,-0.013,-0.028,101.0,101.0,101.0,13.4,1505.2,315.6,-0.8,1.8,2471.411,13.29,0.014,208.3
2023-04-22T07:37:03,42.805,6.029,-0.014,0.0,-0.02,101.0,101.0,101.0,13.4,1505.2,336.8,-0.8,1.8,2471.377,13.29,0.014,270.0
2023-04-22T07:40:03,42.805,6.029,0.003,-0.002,-0.045,101.0,101.0,101.0,13.4,1505.2,325.0,-0.8,1.8,2471.397,13.29,0.003,123.7
2023-04-22T07:43:03,42.805,6.029,0.002,0.002,-0.014,101.0,102.0,100.0,13.4,1505.2,331.8,-0.7,1.8,2471.392,13.29,0.002,45.0
2023-04-22T07:46:03,42.805,6.029,-0.013,0.017,-0.014,100.0,101.0,100.0,13.4,1505.2,328.4,-0.7,1.8,2471.396,13.29,0.021,322.6
2023-04-22T07:49:03,42.805,6.029,-0.011,-0.006,-0.051,101.0,101.0,101.0,13.4,1505.2,339.7,-0.8,1.8,2471.421,13.29,0.012,241.4
2023-04-22T07:52:03,42.805,6.029,0.004,0.009,-0.003,101.0,102.0,101.0,13.4,1505.2,341.2,-0.8,1.8,2471.414,13.29,0.009,24.0
2023-04-22T07:55:03,42.805,6.029,0.0,-0.011,-0.018,102.0,101.0,100.0,13.3,1505.2,343.6,-0.8,1.8,2471.365,13.29,0.011,180.0
2023-04-22T07:58:03,42.805,6.029,0.006,0.0,-0.009,102.0,101.0,101.0,13.3,1505.2,320.3,-0.8,1.8,2471.403,13.29,0.006,90.0
2023-04-22T08:04:02,42.805,6.029,-0.022,0.005,-0.012,101.0,101.0,101.0,13.4,1505.2,321.4,-0.8,1.8,2471.437,13.29,0.022,282.8
2023-04-22T08:07:03,42.805,6.029,-0.024,-0.006,-0.023,101.0,101.0,100.0,13.4,1505.2,333.4,-0.8,1.8,2471.454,13.29,0.024,256.0
2023-04-22T08:10:03,42.805,6.029,-0.021,0.028,-0.015,101.0,102.0,100.0,13.3,1505.2,332.9,-0.8,1.8,2471.463,13.29,0.035,323.1
2023-04-22T08:13:03,42.805,6.029,0.002,-0.002,-0.007,101.0,101.0,100.0,13.4,1505.2,320.9,-0.8,1.8,2471.454,13.29,0.002,135.0
2023-04-22T08:16:03,42.805,6.029,0.015,0.008,0.001,101.0,102.0,100.0,13.4,1505.2,342.3,-0.7,1.8,2471.457,13.29,0.017,61.9
2023-04-22T08:19:03,42.805,6.029,0.013,0.02,0.006,102.0,102.0,100.0,13.3,1505.2,320.7,-0.8,1.8,2471.449,13.29,0.023,33.0
2023-04-22T08:22:03,42.805,6.029,-0.008,0.018,-0.03,102.0,101.0,101.0,13.3,1505.2,326.3,-0.8,1.8,2471.389,13.29,0.019,336.0
2023-04-22T08:25:03,42.805,6.029,-0.009,-0.009,-0.038,101.0,103.0,100.0,13.4,1505.2,330.9,-0.8,1.8,2471.417,13.29,0.012,225.0
2023-04-22T08:28:03,42.805,6.029,0.022,-0.011,-0.008,101.0,101.0,100.0,13.4,1505.2,324.9,-0.8,1.8,2471.394,13.29,0.024,116.6
2023-04-22T08:31:03,42.805,6.029,0.006,-0.006,-0.023,102.0,101.0,100.0,13.4,1505.2,334.9,-0.8,1.8,2471.422,13.29,0.008,135.0
2023-04-22T08:34:03,42.805,6.029,0.009,-0.004,-0.043,101.0,102.0,101.0,13.3,1505.2,328.8,-0.8,1.8,2471.413,13.29,0.009,114.0
2023-04-22T08:37:03,42.805,6.029,0.011,-0.024,-0.028,102.0,102.0,100.0,13.3,1505.2,333.4,-0.7,1.8,2471.419,13.29,0.026,155.4
2023-04-22T08:40:03,42.805,6.029,-0.007,0.003,-0.014,101.0,102.0,100.0,13.4,1505.2,332.4,-0.8,1.8,2471.38,13.29,0.007,293.2
2023-04-22T08:43:03,42.805,6.029,0.013,0.013,-0.009,101.0,102.0,100.0,13.4,1505.2,331.7,-0.7,1.8,2471.369,13.29,0.018,45.0
2023-04-22T08:46:03,42.805,6.029,0.01,-0.021,-0.044,101.0,103.0,100.0,13.4,1505.2,329.7,-0.8,1.8,2471.412,13.29,0.023,154.5
2023-04-22T08:49:03,42.805,6.029,-0.009,0.001,-0.032,101.0,102.0,101.0,13.4,1505.2,339.7,-0.7,1.8,2471.408,13.29,0.009,276.3
2023-04-22T08:52:03,42.805,6.029,0.009,0.007,0.0,101.0,101.0,101.0,13.4,1505.2,339.0,-0.8,1.8,2471.387,13.29,0.011,52.1
2023-04-22T08:55:03,42.805,6.029,0.027,-0.012,-0.035,102.0,102.0,100.0,13.3,1505.2,330.5,-0.7,1.8,2471.364,13.29,0.029,114.0
2023-04-22T08:58:03,42.805,6.029,-0.002,-0.018,-0.04,101.0,102.0,100.0,13.3,1505.2,340.5,-0.8,1.9,2471.424,13.29,0.018,186.3
2023-04-22T09:04:03,42.805,6.029,0.009,-0.009,-0.032,103.0,101.0,100.0,13.4,1505.2,317.7,-0.8,1.8,2471.466,13.29,0.012,135.0
2023-04-22T09:07:03,42.805,6.029,0.001,-0.008,-0.038,102.0,102.0,101.0,13.4,1505.2,337.2,-0.8,1.8,2471.426,13.29,0.008,172.9
2023-04-22T09:10:03,42.805,6.029,0.01,0.002,-0.012,101.0,102.0,101.0,13.4,1505.2,320.4,-0.8,1.8,2471.433,13.29,0.01,78.7
2023-04-22T09:13:03,42.805,6.029,-0.005,0.008,0.005,100.0,101.0,101.0,13.3,1505.2,341.2,-0.7,1.8,2471.41,13.29,0.009,328.0
2023-04-22T09:16:03,42.805,6.029,-0.027,0.01,-0.002,102.0,102.0,102.0,13.3,1505.2,336.6,-0.8,1.8,2471.422,13.29,0.028,290.3
2023-04-22T09:19:03,42.805,6.029,-0.008,-0.004,-0.012,101.0,102.0,101.0,13.4,1505.2,320.9,-0.7,1.8,2471.42,13.29,0.008,243.4
2023-04-22T09:22:03,42.805,6.029,0.005,0.006,-0.006,102.0,102.0,101.0,13.3,1505.2,337.8,-0.7,1.9,2471.42,13.29,0.007,39.8
2023-04-22T09:25:03,42.805,6.029,-0.007,0.011,0.008,100.0,101.0,101.0,13.4,1505.2,337.9,-0.7,1.8,2471.396,13.29,0.013,327.5
2023-04-22T09:28:03,42.805,6.029,-0.002,-0.006,-0.003,102.0,101.0,101.0,13.4,1505.2,342.6,-0.8,1.8,2471.413,13.29,0.006,198.4
2023-04-22T09:31:03,42.805,6.029,-0.001,-0.009,-0.027,101.0,102.0,102.0,13.4,1505.2,329.8,-0.8,1.8,2471.408,13.29,0.009,186.3
2023-04-22T09:34:03,42.805,6.029,-0.017,0.0,-0.025,102.0,102.0,101.0,13.4,1505.2,344.6,-0.7,1.8,2471.422,13.29,0.017,270.0
2023-04-22T09:37:03,42.805,6.029,-0.003,-0.002,-0.02,102.0,101.0,100.0,13.4,1505.2,322.5,-0.8,1.8,2471.402,13.29,0.003,236.3
2023-04-22T09:40:03,42.805,6.029,-0.007,-0.017,-0.022,102.0,101.0,100.0,13.3,1505.2,321.3,-0.8,1.8,2471.402,13.29,0.018,202.4
2023-04-22T09:43:03,42.805,6.029,0.016,-0.008,-0.009,102.0,101.0,101.0,13.3,1505.2,325.2,-0.8,1.8,2471.399,13.29,0.017,116.6
2023-04-22T09:46:03,42.805,6.029,0.004,-0.014,-0.003,102.0,101.0,100.0,13.4,1505.2,330.2,-0.8,1.8,2471.377,13.29,0.014,164.1
2023-04-22T09:49:03,42.805,6.029,-0.007,-0.009,-0.005,101.0,102.0,100.0,13.3,1505.2,319.1,-0.8,1.8,2471.351,13.29,0.011,217.9
2023-04-22T09:52:03,42.805,6.029,0.0,-0.002,-0.021,102.0,101.0,100.0,13.4,1505.2,317.0,-0.8,1.8,2471.366,13.29,0.002,180.0
2023-04-22T09:55:03,42.805,6.029,0.001,0.0,-0.033,101.0,102.0,101.0,13.4,1505.2,327.5,-0.8,1.8,2471.387,13.29,0.001,90.0